[[{"header":{"parameterUnit":"m.s-1","parameterCategory":1,"la1":30.2991,"la2":30.254,"lo1":-89.0895,"lo2":-89.0444,"dy":0.0017,"dx":0.0017,"nx":28,"ny":28,"refTime":"2025-01-28T09:00:00:Z","depth":0,"parameterNumber":2,"parameterNumberName":"U-component_of_WINDS"},"data":[0,0,0,0,0,0,0,0,0,0,0,0,0,0,0,0,0,0,0,0,0,0,0,0,0,0,0,0,0,0,0,0,0,0,0,0,0,0,0,0,0,0,0,0,0,0,0,0,0,0,0,0,0,0,0,0,0,0,-0.0785,-0.0784,0,-0.0714,-0.0713,-0.0712,-0.0677,-0.0677,-0.0677,-0.0677,-0.0602,-0.06,-0.0598,0,0,0,0,0,0,0,0,0,0,0,0,0,-0.089,-0.0888,-0.0785,-0.0784,-0.0783,-0.0714,-0.0713,-0.0712,-0.0677,-0.0677,-0.0677,-0.0677,-0.0603,-0.0601,-0.0598,0,0,0,0,0,0,0,0,0,0,0,0,0,-0.0834,-0.0887,-0.0785,-0.0758,-0.0755,-0.0714,-0.0713,-0.0712,-0.0677,-0.0677,-0.0677,-0.0677,-0.0604,-0.0601,-0.0598,-0.0579,0,0,-0.0589,-0.0587,0,0,0,0,0,0,0,0,-0.0837,-0.083,-0.0763,-0.076,-0.0756,-0.0704,-0.0722,-0.0667,-0.0677,-0.0707,-0.0677,-0.0677,-0.0636,-0.063,-0.0617,-0.0575,-0.0572,-0.0588,-0.0587,-0.0585,-0.0584,0,0,0,0,0,0,0,-0.0841,-0.0833,-0.0757,-0.0762,-0.0758,-0.0748,-0.074,-0.0712,-0.0672,-0.0704,-0.0701,-0.0693,-0.0634,-0.062,-0.0615,-0.0571,-0.0588,-0.0586,-0.0584,-0.0583,-0.051,-0.0509,0,0,0,0,0,0,-0.085,-0.0836,-0.0759,-0.0755,-0.0798,-0.0746,-0.0738,-0.0721,-0.0672,-0.0665,-0.0693,-0.0692,-0.0625,-0.0618,-0.0612,-0.0586,-0.0585,-0.0582,-0.0581,-0.051,-0.0509,-0.0509,0,0,0,0,0,0,-0.0852,-0.0843,-0.0762,-0.0795,-0.0784,-0.0745,-0.0726,-0.072,-0.0705,-0.0664,-0.0657,-0.0686,-0.0625,-0.0616,-0.0587,-0.0583,-0.0581,-0.0578,-0.051,-0.051,-0.0509,-0.0535,0,0,0,0,0,0,-0.0855,-0.0844,-0.0837,-0.0795,-0.0782,-0.0739,-0.0726,-0.0718,-0.07,-0.0698,-0.0656,-0.0649,-0.0624,-0.0592,-0.0584,-0.0579,-0.0576,-0.051,-0.051,-0.0509,-0.0534,-0.0536,-0.0537,0,0,0,0,0,-0.0859,-0.0847,-0.0837,-0.0828,-0.0773,-0.0739,-0.0732,-0.0704,-0.07,-0.0692,-0.0666,-0.065,-0.0585,-0.0589,-0.058,-0.0574,-0.051,-0.051,-0.0509,-0.0534,-0.0535,-0.0537,0,0,0,0,0,0,-0.0889,-0.0841,-0.0829,-0.0803,-0.0776,-0.0733,-0.0723,-0.0707,-0.068,-0.0678,-0.0645,-0.0636,-0.061,-0.0589,-0.0595,-0.0553,-0.0546,-0.0544,-0.0568,-0.0569,-0.057,-0.0575,-0.0573,0,0,0,0,0,-0.0893,-0.087,-0.0829,-0.081,-0.0797,-0.0762,-0.0746,-0.0728,-0.0698,-0.0685,-0.0657,-0.0628,-0.0601,-0.0584,-0.0556,-0.0531,-0.0521,-0.0522,-0.0524,-0.0525,-0.0523,-0.0508,-0.0508,-0.0508,-0.0508,-0.0508,0,0,-0.09,-0.0871,-0.0858,-0.0815,-0.0791,-0.0768,-0.0752,-0.0728,-0.0711,-0.0682,-0.0653,-0.0631,-0.0596,-0.0569,-0.0555,-0.055,-0.0521,-0.0525,-0.0526,-0.0524,-0.0508,-0.0508,-0.0508,-0.0508,-0.0508,-0.0508,0,0,-0.0901,-0.0877,-0.0858,-0.0835,-0.0799,-0.0776,-0.0772,-0.0732,-0.0716,-0.0687,-0.0665,-0.0642,-0.0597,-0.0573,-0.0554,-0.0546,-0.053,-0.0538,-0.0545,-0.053,-0.053,-0.053,-0.0527,-0.0526,-0.0537,-0.0537,-0.0537,0,-0.0914,-0.0879,-0.085,-0.0828,-0.0809,-0.0782,-0.0763,-0.0741,-0.0699,-0.0686,-0.0682,-0.0623,-0.0598,-0.0565,-0.0563,-0.0549,-0.0542,-0.0543,-0.0533,-0.0532,-0.0531,-0.0528,-0.0527,-0.0538,-0.0538,-0.0538,-0.0538,0,-0.0896,-0.0872,-0.0861,-0.0821,-0.0801,-0.078,-0.0748,-0.0731,-0.0714,-0.0692,-0.0662,-0.063,-0.0596,-0.0587,-0.057,-0.0551,-0.0549,-0.0539,-0.0531,-0.0533,-0.0529,-0.0528,-0.054,-0.0539,-0.0539,-0.0539,0,0,-0.0915,-0.0859,-0.0856,-0.0837,-0.0796,-0.0776,-0.0754,-0.0721,-0.0707,-0.0678,-0.0658,-0.062,-0.061,-0.059,-0.057,-0.0557,-0.0552,-0.0548,-0.0547,-0.055,-0.0528,-0.0536,-0.0535,-0.0541,-0.0541,-0.054,-0.0531,0,-0.091,-0.0869,-0.0843,-0.0812,-0.0789,-0.0763,-0.0743,-0.0715,-0.0693,-0.067,-0.0646,-0.0619,-0.0609,-0.0596,-0.0582,-0.0556,-0.0547,-0.0556,-0.0521,-0.0521,-0.0531,-0.0533,-0.0541,-0.0534,-0.0529,-0.0529,-0.0529,0,-0.0899,-0.0872,-0.0839,-0.08,-0.0789,-0.0772,-0.0739,-0.0718,-0.0685,-0.067,-0.0647,-0.0627,-0.0601,-0.0596,-0.056,-0.0566,-0.0551,-0.0535,-0.0534,-0.053,-0.0525,-0.0528,-0.0531,-0.053,-0.0526,-0.0527,-0.0527,0,-0.0915,-0.087,-0.0844,-0.0829,-0.0783,-0.0772,-0.0752,-0.072,-0.0702,-0.0673,-0.0661,-0.0629,-0.0612,-0.0588,-0.0559,-0.0558,-0.0526,-0.0518,-0.0512,-0.0513,-0.0507,-0.0507,-0.0507,-0.0497,-0.0497,-0.0497,-0.0497,0,-0.0913,-0.0894,-0.0851,-0.0836,-0.0813,-0.0783,-0.0761,-0.0739,-0.071,-0.0689,-0.0665,-0.0645,-0.0609,-0.0585,-0.0562,-0.0536,-0.0528,-0.0515,-0.0509,-0.0517,-0.0519,-0.0506,-0.0506,-0.0497,-0.0497,-0.0497,-0.0497,0,-0.0927,-0.0898,-0.0869,-0.0827,-0.0817,-0.0802,-0.0766,-0.075,-0.0726,-0.07,-0.0692,-0.0655,-0.0626,-0.0595,-0.0555,-0.054,-0.0514,-0.0506,-0.0525,-0.0521,-0.0517,-0.0518,-0.0508,-0.0505,-0.0498,-0.0498,-0.0498,0,-0.0928,-0.0912,-0.087,-0.0854,-0.0835,-0.081,-0.0792,-0.0761,-0.0742,-0.0704,-0.0692,-0.0661,-0.0634,-0.0588,-0.0557,-0.0526,-0.0517,-0.0516,-0.0512,-0.052,-0.0516,-0.0518,-0.0516,-0.0517,-0.0517,-0.0517,-0.0517,0,-0.0931,-0.0918,-0.0892,-0.0861,-0.084,-0.0814,-0.0787,-0.0776,-0.0739,-0.072,-0.0689,-0.0669,-0.0628,-0.0597,-0.0562,-0.0541,-0.0523,-0.0519,-0.0516,-0.0524,-0.0535,-0.0529,-0.0528,-0.0519,-0.0519,-0.0519,-0.0519,-0.0519,-0.0939,-0.0924,-0.0891,-0.0863,-0.084,-0.0815,-0.0798,-0.0772,-0.0747,-0.0711,-0.0694,-0.0664,-0.0631,-0.0583,-0.0562,-0.0537,-0.0532,-0.0528,-0.0526,-0.0526,-0.0528,-0.0539,-0.0531,-0.0531,-0.053,-0.053,-0.053,0,-0.0941,-0.0919,-0.0893,-0.0857,-0.0835,-0.082,-0.079,-0.0772,-0.0746,-0.0717,-0.0691,-0.0656,-0.0626,-0.0593,-0.056,-0.0547,-0.0538,-0.0539,-0.054,-0.0535,-0.0534,-0.054,-0.0547,-0.0547,-0.0547,-0.0547,-0.0547,-0.0547,-0.0939,-0.0913,-0.0896,-0.0857,-0.0835,-0.0805,-0.0789,-0.0766,-0.0743,-0.0705,-0.068,-0.0659,-0.0628,-0.0593,-0.0564,-0.0555,-0.0544,-0.0548,-0.0537,-0.0536,-0.0535,-0.0534,-0.0539,-0.0546,-0.0546,-0.0539,-0.0539,-0.0539]},{"header":{"parameterUnit":"m.s-1","parameterCategory":1,"la1":30.2991,"la2":30.254,"lo1":-89.0895,"lo2":-89.0444,"dy":0.0017,"dx":0.0017,"nx":28,"ny":28,"refTime":"2025-01-28T09:00:00:Z","depth":0,"parameterNumber":3,"parameterNumberName":"V-component_of_WINDS"},"data":[0,0,0,0,0,0,0,0,0,0,0,0,0,0,0,0,0,0,0,0,0,0,0,0,0,0,0,0,0,0,0,0,0,0,0,0,0,0,0,0,0,0,0,0,0,0,0,0,0,0,0,0,0,0,0,0,0,0,0.1781,0.1781,0,0.1731,0.173,0.173,0.1697,0.1697,0.1696,0.1696,0.1645,0.1644,0.1643,0,0,0,0,0,0,0,0,0,0,0,0,0,0.1851,0.185,0.1782,0.1781,0.178,0.1731,0.173,0.173,0.1697,0.1697,0.1696,0.1696,0.1646,0.1644,0.1643,0,0,0,0,0,0,0,0,0,0,0,0,0,0.1813,0.1849,0.1782,0.1758,0.1755,0.1731,0.173,0.1729,0.1697,0.1697,0.1696,0.1696,0.1646,0.1644,0.1643,0.1638,0,0,0.1637,0.1637,0,0,0,0,0,0,0,0,0.1815,0.181,0.1762,0.176,0.1757,0.172,0.1736,0.1699,0.1697,0.1719,0.1696,0.1696,0.167,0.1667,0.1658,0.1636,0.1634,0.1637,0.1636,0.1635,0.1635,0,0,0,0,0,0,0,0.1817,0.1812,0.1761,0.1761,0.1758,0.175,0.1744,0.1729,0.1697,0.1717,0.1715,0.1709,0.1669,0.166,0.1656,0.1633,0.1637,0.1636,0.1635,0.1634,0.1604,0.1604,0,0,0,0,0,0,0.1824,0.1814,0.1763,0.176,0.1785,0.1749,0.1743,0.1732,0.1697,0.1692,0.1709,0.1708,0.1663,0.1658,0.1655,0.1647,0.1635,0.1634,0.1633,0.1604,0.1604,0.1605,0,0,0,0,0,0,0.1825,0.1819,0.1765,0.1786,0.1779,0.1748,0.1737,0.1731,0.1722,0.1691,0.1686,0.1706,0.1662,0.1657,0.1642,0.1645,0.1633,0.1631,0.1604,0.1604,0.1604,0.1631,0,0,0,0,0,0,0.1827,0.182,0.1818,0.1787,0.1778,0.1754,0.1737,0.173,0.1719,0.1716,0.1686,0.1681,0.1662,0.1645,0.1641,0.1642,0.163,0.1603,0.1604,0.1604,0.163,0.1633,0.1635,0,0,0,0,0,0.183,0.1828,0.1818,0.1812,0.1775,0.1754,0.1749,0.1726,0.1719,0.1717,0.1697,0.1682,0.1645,0.1644,0.1639,0.1639,0.1603,0.1604,0.1604,0.1629,0.1632,0.1635,0,0,0,0,0,0,0.1861,0.1823,0.1812,0.18,0.178,0.1748,0.1745,0.173,0.1713,0.1711,0.1684,0.1677,0.1666,0.1651,0.165,0.1633,0.1622,0.1622,0.1643,0.1646,0.1648,0.1652,0.1629,0,0,0,0,0,0.1866,0.1852,0.182,0.1812,0.1803,0.1776,0.1766,0.175,0.1729,0.1721,0.17,0.168,0.1664,0.1654,0.1637,0.1628,0.1621,0.1626,0.1628,0.163,0.163,0.1624,0.1626,0.1606,0.1606,0.1606,0,0,0.1877,0.1855,0.1848,0.1818,0.1801,0.1788,0.1769,0.1756,0.1745,0.1719,0.1704,0.1688,0.1664,0.1652,0.1645,0.1639,0.1634,0.1631,0.1633,0.1632,0.1625,0.1627,0.1628,0.1607,0.1607,0.1607,0,0,0.189,0.1872,0.1863,0.1846,0.1821,0.1802,0.18,0.1771,0.1759,0.1743,0.1723,0.171,0.1683,0.1667,0.1655,0.1662,0.1647,0.1657,0.1669,0.1663,0.1665,0.1666,0.1668,0.167,0.1657,0.1657,0.1657,0,0.1907,0.1885,0.1861,0.1848,0.1836,0.181,0.1802,0.1787,0.1757,0.1749,0.1743,0.1708,0.169,0.1674,0.1675,0.1666,0.1663,0.166,0.1667,0.1668,0.1668,0.167,0.1671,0.1658,0.1658,0.1658,0.1658,0,0.1907,0.1893,0.1889,0.186,0.1848,0.1837,0.1811,0.1801,0.1786,0.1769,0.1753,0.1731,0.1709,0.1704,0.169,0.1686,0.1683,0.1672,0.166,0.1672,0.1673,0.1674,0.166,0.166,0.1659,0.1659,0,0,0.1938,0.1896,0.1895,0.1882,0.1852,0.184,0.1828,0.1807,0.1799,0.1779,0.1769,0.1746,0.1736,0.1723,0.1706,0.1701,0.1708,0.1691,0.169,0.1695,0.1702,0.1711,0.1712,0.1698,0.1698,0.1698,0.1704,0,0.1947,0.1924,0.1902,0.1887,0.1873,0.1849,0.1839,0.182,0.1803,0.1789,0.177,0.1755,0.1742,0.1734,0.1728,0.1708,0.1709,0.1707,0.1688,0.1688,0.1695,0.1712,0.1722,0.1728,0.1704,0.1704,0.1704,0,0.1954,0.1935,0.1919,0.189,0.1883,0.1875,0.1853,0.184,0.1817,0.1805,0.179,0.1773,0.1759,0.1749,0.1731,0.173,0.1721,0.171,0.171,0.1708,0.1697,0.1711,0.173,0.1731,0.1705,0.1705,0.1705,0,0.1978,0.1949,0.1936,0.1925,0.1891,0.1885,0.1871,0.1848,0.1836,0.1817,0.1809,0.179,0.1779,0.1764,0.1741,0.1736,0.1725,0.1713,0.1715,0.1716,0.1714,0.1715,0.1733,0.1708,0.1708,0.1708,0.1708,0,0.199,0.1982,0.1946,0.1938,0.1928,0.1902,0.1892,0.1875,0.1855,0.1843,0.1821,0.1811,0.1782,0.1768,0.175,0.1737,0.1733,0.1723,0.1718,0.1725,0.1726,0.1719,0.1718,0.1708,0.1708,0.1708,0.1708,0,0.2016,0.1992,0.1976,0.1944,0.1936,0.193,0.1903,0.1894,0.1876,0.1862,0.1857,0.1829,0.1811,0.1787,0.1762,0.175,0.174,0.1733,0.1748,0.1745,0.1748,0.1748,0.1762,0.1763,0.1738,0.1738,0.1738,0,0.2025,0.2018,0.1986,0.1976,0.1962,0.1947,0.1935,0.1909,0.1898,0.1871,0.1866,0.1846,0.183,0.1803,0.178,0.1761,0.1753,0.1759,0.175,0.1757,0.1754,0.1754,0.1754,0.1762,0.1762,0.1763,0.1763,0,0.2045,0.2033,0.2016,0.1996,0.1982,0.1964,0.1946,0.1939,0.1909,0.1898,0.1879,0.1866,0.1841,0.1822,0.18,0.1785,0.1769,0.1766,0.1765,0.1772,0.1781,0.1776,0.1754,0.1766,0.1765,0.1765,0.1765,0.1765,0.2062,0.2055,0.2031,0.2013,0.1996,0.1979,0.197,0.195,0.1934,0.1911,0.1897,0.1879,0.1857,0.1825,0.1811,0.1797,0.179,0.179,0.1789,0.179,0.1792,0.1783,0.1793,0.1793,0.1792,0.1792,0.1792,0,0.2081,0.2064,0.2048,0.2022,0.2008,0.1994,0.1973,0.1962,0.1947,0.1927,0.1911,0.189,0.1871,0.1847,0.1827,0.182,0.1812,0.1816,0.1816,0.1813,0.1799,0.1801,0.1823,0.1823,0.1823,0.1823,0.1823,0.1823,0.2088,0.2075,0.206,0.2038,0.2021,0.2003,0.1993,0.1977,0.1961,0.1938,0.1923,0.1907,0.1885,0.1863,0.1846,0.1839,0.1833,0.1838,0.183,0.1817,0.1814,0.1812,0.1814,0.1837,0.1837,0.1845,0.1845,0.1845]}]]